This is the latest recevied weather packets stored in our database for station/object DK4EP-10. If no packets are shown the sender has not sent any weather packets the latest 10 day(s).
| Time | Temp. | Humidity | Pressure | Rain* | Wind** | Luminosity | Snow |
|---|---|---|---|---|---|---|---|
| 1777717305 | 26.11° C | 38% | 999 hPa | - | - | - | - |
| 1777716404 | 25.56° C | 38% | 1000 hPa | - | - | - | - |
| 1777715503 | 26.11° C | 37% | 1000 hPa | - | - | - | - |
| 1777714601 | 25.56° C | 37% | 1000 hPa | - | - | - | - |
| 1777713700 | 25° C | 39% | 1000 hPa | - | - | - | - |
| 1777712799 | 25° C | 38% | 1000 hPa | - | - | - | - |
| 1777711898 | 24.44° C | 37% | 1000 hPa | - | - | - | - |
| 1777710999 | 24.44° C | 39% | 1000 hPa | - | - | - | - |
| 1777710098 | 25° C | 37% | 1000 hPa | - | - | - | - |
| 1777709194 | 25° C | 38% | 1000 hPa | - | - | - | - |
| 1777708293 | 26.11° C | 39% | 1001 hPa | - | - | - | - |
| 1777707392 | 26.11° C | 38% | 1001 hPa | - | - | - | - |
| 1777706491 | 26.67° C | 40% | 1001 hPa | - | - | - | - |
| 1777705590 | 26.67° C | 39% | 1001 hPa | - | - | - | - |
| 1777704688 | 25° C | 45% | 1001 hPa | - | - | - | - |
| 1777703787 | 24.44° C | 40% | 1001 hPa | - | - | - | - |
| 1777702886 | 24.44° C | 40% | 1001 hPa | - | - | - | - |
| 1777701985 | 22.78° C | 45% | 1001 hPa | - | - | - | - |
| 1777701084 | 21.67° C | 47% | 1001 hPa | - | - | - | - |
| 1777700182 | 18.89° C | 56% | 1001 hPa | - | - | - | - |
| 1777699281 | 16.11° C | 58% | 1001 hPa | - | - | - | - |
| 1777698380 | 11.67° C | 80% | 1001 hPa | - | - | - | - |
| 1777697479 | 5° C | 100% | 1001 hPa | - | - | - | - |
| 1777696578 | 3.89° C | 100% | 1001 hPa | - | - | - | - |
| 1777695677 | 3.33° C | 100% | 1001 hPa | - | - | - | - |
* Rain since midnight (hover to see other rain measurements)
** Current wind speed in m/s (hover to see current wind gust speed)